Las Cruces, NM

6:16 PM MDT on April 24, 2018 (GMT -0600)
Las Cruces International

Weather History for KLRU - June, 2013

Change the Weather History Date:

Saturday, June 1, 2013

  Actual Average Record
Temperature  
Mean Temperature 81 °F -  
Max Temperature 93 °F 90 °F 102 °F (1997)
Min Temperature 69 °F 61 °F 55 °F (2016)
Cooling Degree Days 16    
Growing Degree Days 31 (Base 50)    
Moisture  
Dew Point 21 °F    
Average Humidity 11    
Maximum Humidity 23    
Minimum Humidity 7    
Precipitation  
Precipitation 0.00 in - - ()
Sea Level Pressure  
Sea Level Pressure 30.00 in    
Wind  
Wind Speed 9 mph (NE)    
Max Wind Speed 16 mph    
Max Gust Speed 24 mph    
Visibility 10 miles    
Events      
Averages and records for this station are not official NWS values.
T = Trace of Precipitation, MM = Missing Value Source: NWS Daily Summary

Daily Weather History Graph

Daily Weather History Graph

Search for Another Location

Airport or City:

Astronomy

Jun. 01, 2013 Rise Set
Actual Time 6:01 AM MDT 8:09 PM MDT
Civil Twilight 5:33 AM MDT 8:37 PM MDT
Nautical Twilight 4:59 AM MDT 9:11 PM MDT
Astronomical Twilight 4:23 AM MDT 9:48 PM MDT
Moon 1:37 AM MDT (6/1) 2:01 PM MDT (6/1)
Length of Visible Light 15h 04m
Length of Day
14h 08m
Last Quarter, 40% of the Moon is Illuminated
Jun 1
Last Quarter
Jun 8
New
Jun 16
First Quarter
Jun 23
Full
Jun 29
Last Quarter

Hourly Weather History & Observations

Time (MDT) Temp. Dew Point Humidity Pressure Visibility Wind Dir Wind Speed Gust Speed Precip Events Conditions
12:15 AM 79.7 °F 33.3 °F 19% 29.95 in 10.0 mi WNW 10.4 mph - N/A   Clear
12:35 AM 78.6 °F 32.4 °F 19% 29.95 in 10.0 mi WNW 8.1 mph - N/A   Clear
12:55 AM 77.2 °F 32.0 °F 19% 29.95 in 10.0 mi WNW 8.1 mph - N/A   Clear
1:15 AM 74.5 °F 32.0 °F 21% 29.95 in 10.0 mi NW 8.1 mph - N/A   Clear
1:35 AM 75.0 °F 32.0 °F 21% 29.95 in 10.0 mi NNW 9.2 mph - N/A   Clear
1:55 AM 72.3 °F 32.0 °F 23% 29.95 in 10.0 mi NNW 9.2 mph - N/A   Clear
2:15 AM 75.4 °F 29.5 °F 18% 29.95 in 10.0 mi NW 11.5 mph 17.3 mph N/A   Clear
2:35 AM 75.2 °F 22.3 °F 14% 29.95 in 10.0 mi NNW 12.7 mph - N/A   Clear
2:55 AM 74.7 °F 19.0 °F 12% 29.95 in 10.0 mi NNW 12.7 mph - N/A   Clear
3:15 AM 74.3 °F 17.4 °F 12% 29.96 in 10.0 mi NNW 13.8 mph - N/A   Clear
3:35 AM 73.8 °F 15.8 °F 11% 29.97 in 10.0 mi North 12.7 mph - N/A   Clear
3:55 AM 73.4 °F 16.2 °F 11% 29.98 in 10.0 mi North 12.7 mph - N/A   Clear
4:15 AM 72.0 °F 15.8 °F 12% 29.98 in 10.0 mi North 10.4 mph - N/A   Clear
4:35 AM 71.2 °F 16.0 °F 12% 29.99 in 10.0 mi North 10.4 mph - N/A   Clear
4:55 AM 71.6 °F 15.8 °F 12% 29.99 in 10.0 mi North 11.5 mph - N/A   Clear
5:15 AM 70.2 °F 15.6 °F 12% 29.99 in 10.0 mi North 8.1 mph - N/A   Clear
5:35 AM 70.0 °F 14.7 °F 12% 29.99 in 10.0 mi North 10.4 mph - N/A   Clear
5:55 AM 70.7 °F 13.1 °F 11% 30.00 in 10.0 mi North 11.5 mph - N/A   Clear
6:15 AM 69.8 °F 12.0 °F 11% 30.00 in 10.0 mi NNW 9.2 mph - N/A   Clear
6:35 AM 69.1 °F 11.1 °F 11% 30.00 in 10.0 mi NNW 12.7 mph - N/A   Clear
6:55 AM 71.1 °F 10.4 °F 10% 30.01 in 10.0 mi NNW 13.8 mph - N/A   Clear
7:15 AM 72.5 °F 10.4 °F 9% 30.01 in 10.0 mi NNW 12.7 mph - N/A   Clear
7:35 AM 73.8 °F 10.8 °F 9% 30.02 in 10.0 mi North 12.7 mph - N/A   Clear
7:55 AM 74.8 °F 11.1 °F 9% 30.03 in 10.0 mi North 12.7 mph - N/A   Clear
8:15 AM 76.1 °F 12.0 °F 9% 30.03 in 10.0 mi NNW 13.8 mph - N/A   Clear
8:35 AM 78.1 °F 12.4 °F 8% 30.03 in 10.0 mi NNW 11.5 mph - N/A   Clear
8:55 AM 79.5 °F 12.7 °F 8% 30.04 in 10.0 mi North 10.4 mph - N/A   Clear
9:15 AM 81.5 °F 12.9 °F 8% 30.05 in 10.0 mi North 10.4 mph 16.1 mph N/A   Clear
9:35 AM 81.9 °F 12.9 °F 7% 30.05 in 10.0 mi North 11.5 mph - N/A   Clear
9:55 AM 83.1 °F 13.1 °F 7% 30.05 in 10.0 mi North 12.7 mph 17.3 mph N/A   Clear
10:15 AM 83.8 °F 13.3 °F 7% 30.06 in 10.0 mi North 11.5 mph 17.3 mph N/A   Clear
10:35 AM 85.1 °F 13.8 °F 7% 30.05 in 10.0 mi NNE 9.2 mph - N/A   Clear
10:55 AM 86.7 °F 15.1 °F 7% 30.05 in 10.0 mi NNE 10.4 mph 16.1 mph N/A   Clear
11:15 AM 87.6 °F 15.1 °F 7% 30.06 in 10.0 mi NNE 12.7 mph 17.3 mph N/A   Clear
11:35 AM 88.7 °F 16.2 °F 7% 30.06 in 10.0 mi NE 9.2 mph 16.1 mph N/A   Clear
11:55 AM 89.1 °F 16.5 °F 7% 30.05 in 10.0 mi North 6.9 mph 11.5 mph N/A   Clear
12:15 PM 89.1 °F 16.7 °F 7% 30.05 in 10.0 mi East 5.8 mph - N/A   Clear
12:35 PM 90.5 °F 17.6 °F 7% 30.04 in 10.0 mi ESE 3.5 mph 17.3 mph N/A   Clear
12:55 PM 92.3 °F 18.9 °F 7% 30.04 in 10.0 mi East 9.2 mph - N/A   Clear
1:15 PM 91.6 °F 18.9 °F 7% 30.03 in 10.0 mi NE 3.5 mph - N/A   Clear
1:35 PM 92.7 °F 19.6 °F 7% 30.03 in 10.0 mi East 11.5 mph 18.4 mph N/A   Clear
1:55 PM 91.6 °F 19.2 °F 7% 30.03 in 10.0 mi SSE 3.5 mph 10.4 mph N/A   Clear
2:15 PM 90.9 °F 19.4 °F 7% 30.02 in 10.0 mi Calm Calm - N/A   Clear
2:35 PM 93.9 °F 20.5 °F 7% 30.01 in 10.0 mi SE 9.2 mph - N/A   Clear
2:55 PM 93.0 °F 21.2 °F 7% 30.01 in 10.0 mi SE 3.5 mph - N/A   Clear
3:15 PM 92.8 °F 21.2 °F 7% 30.01 in 10.0 mi SSW 4.6 mph - N/A   Clear
3:35 PM 93.9 °F 21.0 °F 7% 30.00 in 10.0 mi ESE 3.5 mph - N/A   Clear
3:55 PM 92.8 °F 21.9 °F 8% 30.00 in 10.0 mi East 3.5 mph - N/A   Clear
4:15 PM 93.7 °F 23.7 °F 8% 29.99 in 10.0 mi South 10.4 mph - N/A   Clear
4:35 PM 93.2 °F 24.1 °F 8% 29.99 in 10.0 mi SSE 3.5 mph - N/A   Clear
4:55 PM 93.2 °F 26.6 °F 9% 29.99 in 10.0 mi Calm Calm - N/A   Clear
5:15 PM 93.9 °F 26.8 °F 9% 29.98 in 10.0 mi SE 5.8 mph - N/A   Clear
5:35 PM 93.6 °F 26.2 °F 9% 29.98 in 10.0 mi East 6.9 mph - N/A   Clear
5:55 PM 93.4 °F 25.3 °F 9% 29.97 in 10.0 mi East 6.9 mph - N/A   Clear
6:15 PM 93.0 °F 26.6 °F 9% 29.97 in 10.0 mi SSE 9.2 mph - N/A   Clear
6:35 PM 91.9 °F 25.2 °F 9% 29.97 in 10.0 mi ESE 6.9 mph - N/A   Clear
6:55 PM 92.1 °F 25.5 °F 9% 29.97 in 10.0 mi SE 4.6 mph - N/A   Clear
7:15 PM 91.2 °F 25.5 °F 9% 29.97 in 10.0 mi SE 3.5 mph - N/A   Clear
7:35 PM 90.5 °F 25.3 °F 10% 29.98 in 10.0 mi SSE 6.9 mph - N/A   Clear
7:55 PM 88.9 °F 25.3 °F 10% 29.98 in 10.0 mi SSE 3.5 mph - N/A   Clear
8:15 PM 86.9 °F 25.3 °F 11% 29.98 in 10.0 mi East 3.5 mph - N/A   Clear
8:35 PM 83.7 °F 24.3 °F 11% 29.99 in 10.0 mi Calm Calm - N/A   Clear
8:55 PM 79.9 °F 22.8 °F 12% 29.99 in 10.0 mi Calm Calm - N/A   Clear
9:15 PM 77.0 °F 20.7 °F 12% 29.99 in 10.0 mi Calm Calm - N/A   Clear
9:35 PM 75.6 °F 19.2 °F 12% 30.00 in 10.0 mi Calm Calm - N/A   Clear
9:55 PM 78.3 °F 23.0 °F 13% 30.01 in 10.0 mi ESE 5.8 mph - N/A   Clear
10:15 PM 80.6 °F 27.3 °F 14% 30.02 in 10.0 mi ESE 6.9 mph - N/A   Clear
10:35 PM 81.5 °F 28.4 °F 14% 30.02 in 10.0 mi ESE 11.5 mph - N/A   Clear
10:55 PM 80.8 °F 28.9 °F 15% 30.03 in 10.0 mi SE 9.2 mph - N/A   Clear
11:15 PM 80.2 °F 29.3 °F 16% 30.03 in 10.0 mi SE 11.5 mph 17.3 mph N/A   Clear
11:35 PM 79.2 °F 30.2 °F 17% 30.04 in 10.0 mi SE 10.4 mph 16.1 mph N/A   Clear
11:55 PM 79.5 °F 32.0 °F 18% 30.04 in 10.0 mi SE 16.1 mph 24.2 mph N/A   Clear